Location: Balmoral
(33.0667°S, 151.5833°E)
Time: 01:21:26
(UTC+00:00)

Meteor 1-14 Rocket - Pass Details

Date: 18 September 2020
Orbit: 833 x 920 km, 81.3° (Epoch: 21 October)

Event Time Altitude Azimuth Distance (km) Brightness Sun altitude
Rises 18:30:25 0° 350° (N) 3,368 7.1 -16.9°
Reaches altitude 10° 18:32:47 10° 348° (NNW) 2,445 6.4 -16.4°
Maximum altitude 18:38:19 77° 262° (W) 876 4.1 -15.3°
Drops below altitude 10° 18:44:02 10° 175° (S) 2,516 6.8 -14.1°
Sets 18:46:31 0° 173° (S) 3,472 7.6 -13.6°
